Location: Vinland
(47.7731°N, 122.6974°W)
Time: 22:22:52
(UTC+00:00)

S-56A Canister/Altair - Pass Details

Date: 01 April 2023
Orbit: 639 x 2492 km, 38.9° (Epoch: 01 June)

Event Time Altitude Azimuth Distance (km) Brightness Sun altitude
Rises 08:48:12 0° 278° (W) 5,962 12.0 -37.2°
Reaches altitude 10° 08:54:44 10° 258° (WSW) 5,113 11.5 -37.0°
Enters shadow 08:54:54 10° 257° (WSW) 5,097 11.5 -37.0°
